OPS 4682 DEB, 18964

Orbit data source: Space-Track

OPS 4682 DEB, 18964 is space debris in LEO originally from a launch on Sat, 03 Apr 1965 UTC launched from the Air Force Western Test Range (AFWTR). Debris objects in space refer to the collection of defunct objects orbiting the Earth. Examples of debris include non-operational satellites, rocket bodies, and fragments generated from explosions, collisions, or faulty payload assembly.

Loading next visibility...
Identifier
18964, 1965-027AM
Orbit
LEO
Last TLE update
3 days ago
Origin
Manufacturer
Unknown
Mission
Spacecraft
Bus & Motor
Unknown
Mass
Unknown
Launch date (UTC)
1965-04-03 (60 years ago)
Launch vehicle
Unknown
Launch site
Air Force Western Test Range (AFWTR)
Object type
Payload
Rocket body
Debris
Shape & HBR
Unknown
Radar Cross Section
Small (<0.1 m²)

Expand to show TLE details & history

TLE from 3 days ago
0 OPS 4682 DEB
1 18964U 65027AM  25179.26307009  .00000614  00000-0  20860-2 0  9998
2 18964  90.2423 351.9748 0029249 322.4376 160.2218 12.97476826809560
Epoch: 2025-06-28T06:18Z
TLE epoch observation values (Epoch: 2025-06-28T06:18:49.255Z)
Latitude
57.31649°
Longitude
161.04125°
Altitude
1,302.737 km
Speed
7.201 km/s
True Right ascension
11h 29m 24s
True Declination
57° 10' 16"
Sunlit
Object was in daylight at epoch
Visualization orbit readout
Latitude
-82.18606°
Longitude
-17.50803°
Altitude
1,282.388 km
Speed
7.223 km/s
Apparent Right ascension
08h 08m 20s
Apparent Declination
-70° 13' 60"
Sunlit
Object is in daylight
Visualization observer readout
Local Sidereal Time
20:46:52
Azimuth
173.641° S
Elevation
-59.27°
Doppler factor
1
Orbital elements
Apogee altitude
1,291.487 km
Perigee altitude
1,246.752 km
Semi-major axis
7,647.256 km
Eccentricity
0.00292
Inclination
90.2423°
RAAN
351.9748°
Arg. of periapsis
322.4376°
True anomaly
Unknown
Mean anomaly
160.2218°
Eccentric anomaly
Unknown
Mean motion
3.24552 °/min
Orbital period
110.92 mins
BSTAR
0.002086
Loading maneuver chart data...
Loading SW <> Apogee altitude chart data...
Loading historical data...
Loading historical data...
Loading historical data...
Loading historical data...
Loading historical data...
Loading historical data...
Loading historical data...

OPS 4682 DEB Visibility forecast

Observer location: undefined°, undefined°

Span
Click to sort rows by Start time (UTC) header in descending order
Start Az.
Max El. time (UTC)
Max El. Az.
Max El.
End time (UTC)
End Az.
5 mins2025-07-01 09:45:38.632Z83.774° E2025-07-01 09:47:38.632Z67.54° E12.539°2025-07-01 09:50:38.632Z43.468° NE
13 mins2025-07-01 11:31:38.632Z166.985° S2025-07-01 11:37:38.632Z53.053° ENE43.967°2025-07-01 11:44:38.632Z0.768° NNE
8 mins2025-07-01 13:25:38.632Z254.477° W2025-07-01 13:28:38.632Z282.29° WNW17.965°2025-07-01 13:33:38.632Z324.67° NNW
13 mins2025-07-01 23:08:38.632Z15.656° NNE2025-07-01 23:14:38.632Z92.248° ESE39.305°2025-07-01 23:21:38.632Z164.255° S
11 mins2025-07-02 00:59:38.632Z335.219° NNW2025-07-02 01:04:38.632Z287.328° WNW25.495°2025-07-02 01:10:38.632Z232.793° WSW
|